World > North America > United States > Pennsylvania > Davidsville  

Davidsville, PA Hourly Weather Updates

Feedback E-mail the Weather

Quick Clicks

Davidsville, PA Weather Maps

°F °C°F °C
Davidsville Weather Map
UTC Time: 7/21/2024, 00:31
Your Time:

Davidsville, PA Regional Weather

Expires:202407210100;;013916
ASUS41 KCTP 210010
RWRCTP

REGIONAL WEATHER ROUNDUP
NATIONAL WEATHER SERVICE STATE COLLEGE PA
800 PM EDT SAT JUL 20 2024

Note: "fair" indicates few or no clouds below 12,000 feet with no 
significant weather and/or obstructions to visibility.

* = STATION THAT DOES NOT REPORT PRECIPITATION /E.G. RAIN...SNOW...ETC/
    THUNDER OR FOG.


PAZ004>006-010>012-017>019-024>028-033>037-041-042-045-046-049>053-210100-
CENTRAL PENNSYLVANIA
  
CITY           SKY/WX    TMP DP  RH WIND       PRES   REMARKS
BRADFORD       PTCLDY    76  59  55 N10       30.10R                  
ST MARYS       CLOUDY    77  55  47 NW3       30.11R                  
DUBOIS         CLOUDY    79  58  48 NW6       30.07S                  
CLEARFIELD     CLOUDY    79  63  57 N3        30.06S                  
JOHNSTOWN      CLOUDY    76  56  49 NW7       30.10R                  
SOMERSET       CLOUDY    73  55  53 NW3       30.11R                  
ALTOONA        CLOUDY    74  66  76 S7        30.06S                  
STATE COLLEGE  NOT AVBL                                               
REEDSVILLE     CLOUDY    81  68  65 CALM      30.02S                  
WELLSBORO      MOCLDY    73  66  78 SE5       30.07R                  
WILLIAMSPORT   CLOUDY    76  68  76 E9        30.01S                  
SELINSGROVE    MOCLDY    78  69  73 SE5       30.03S                  
FT INDIANTOWN  MOCLDY    80  65  60 S8        30.02R                  
CAPITAL CITY   CLOUDY    81  62  52 S6        30.03R                  
HARRISBURG     CLOUDY    80  65  59 SW10G18   30.02R                  
YORK           CLOUDY    78  65  63 S5        30.05R                  
$$


SKY/WX - Weather  TMP - Temperature  DP - Dew Point  RH - Humidity
WIND - Wind Direction/Speed PRES - Barometric Pressure VSB - Visibility
WCI - Wind Chill Index E13G22 Wind - East Wind 13 mph/Gusts of 22 mph

Trending Headlines

Trending Entertainment Headlines

Davidsville Radar Loop

Use the map search tool if you want to place a location marker on the radar map...

Davidsville Quick Facts

National Two Day Weather Forecast


E-mail the Davidsville Weather Forecast

Voice your opinion or tell us about page issues...